Temp
20 22 22 24 25 27 28 28 28 29 30 27 27 27 29 30 29 29 28 27 28 28 28 28 28 28 26 24 23 23 22 21 19 17 17 17 17 17 16 16 16 16 16 16
22 21 24 25 26 26 26 26 26 28 29 28 27 27 29 30 30 29 28 28 28 28 29 29 28 27 24 23 22 22 21 21 19 18 17 18 17 17 17 17 16 16 16 16
21 23 24 24 25 24 25 25 26 26 28 27 27 27 28 30 30 29 28 27 27 29 29 29 28 26 24 22 20 20 19 20 19 18 17 17 17 17 17 16 16 15 16 18
22 23 24 23 24 25 24 25 25 25 25 25 28 25 28 31 30 28 28 28 28 29 29 28 27 26 22 21 18 18 18 18 19 17 17 16 16 16 17 17 17 17 17 17
21 22 23 23 23 24 24 26 25 25 24 25 26 26 27 31 29 30 30 28 29 29 28 28 26 24 21 18 20 18 18 18 18 17 16 15 14 14 15 17 17 16 17 17
22 23 23 23 24 24 25 24 23 24 24 23 25 26 27 30 30 29 29 29 29 29 28 27 25 21 20 17 21 17 17 17 16 16 15 15 15 16 15 16 16 17 17 17
21 22 24 23 23 24 24 22 21 22 22 23 27 27 28 29 29 30 29 29 29 28 27 25 23 20 19 17 20 19 16 14 14 15 15 16 15 15 16 15 16 17 16 15
20 20 22 22 22 23 23 22 22 21 23 25 28 26 29 30 30 28 28 27 28 26 24 24 23 21 18 15 18 16 14 14 15 15 15 15 15 15 15 16 16 16 15 15
21 21 24 23 22 24 23 21 24 24 25 24 26 29 29 28 27 27 27 26 26 26 24 23 22 21 17 14 16 14 14 15 15 14 15 14 15 14 14 14 14 14 14 15
21 21 23 23 22 23 24 23 21 23 20 20 24 26 28 29 26 26 26 26 26 25 25 23 22 20 16 13 13 14 14 14 15 14 14 14 14 15 14 15 14 15 15 15
21 21 22 23 21 21 22 23 23 23 22 22 23 26 29 29 29 26 27 26 25 25 24 23 22 20 17 12 13 13 14 14 14 14 14 14 14 14 14 14 14 14 14 14
21 20 20 22 23 22 23 22 23 21 21 23 23 24 28 26 27 27 27 26 26 24 23 22 21 19 17 13 13 13 13 13 13 13 13 13 13 13 13 13 13 13 14 14
19 17 18 20 21 21 21 23 23 23 22 22 21 22 27 27 26 26 26 25 24 23 23 22 21 18 16 15 11 12 12 12 11 10 11 12 12 12 13 14 14 13 13 13
19 18 17 18 20 20 19 21 22 22 19 20 22 24 25 25 24 25 23 24 23 22 22 22 21 18 16 15 13 11 11 10 11 10 10 11 11 11 11 12 12 12 12 12
19 17 17 18 21 21 19 20 21 22 21 20 21 23 25 26 24 24 23 23 23 22 21 20 20 18 16 15 13 12 10 10 10 10 9 10 11 11 12 12 12 12 11 11
18 16 17 17 18 21 21 21 20 21 22 23 23 23 26 26 26 26 25 24 22 21 21 19 18 17 15 12 12 11 10 9 9 9 8 9 10 10 10 10 10 11 11 11
17 16 15 14 18 17 15 21 22 22 22 22 21 23 25 24 25 25 23 22 21 21 20 19 17 12 11 10 10 9 9 9 9 8 8 9 9 10 10 10 9 9 9 8
16 16 16 13 15 12 16 20 22 22 22 23 23 23 24 24 24 23 23 23 22 21 19 18 16 11 10 9 9 9 8 8 8 8 9 9 9 9 9 9 8 8 7 6
18 17 12 12 14 17 17 19 20 20 21 23 23 23 23 23 23 22 22 21 21 20 19 17 14 10 9 8 8 7 7 7 7 6 8 9 9 8 8 7 7 7 8 7
18 17 14 10 12 12 18 20 20 20 17 22 22 22 22 22 19 21 21 21 20 18 17 14 12 10 9 8 7 6 6 6 6 7 7 7 6 6 7 6 7 6 6 6
14 14 12 12 12 16 20 21 22 17 17 20 20 20 20 19 20 20 20 18 17 15 12 10 9 8 7 6 5 7 7 7 6 6 5 4 4 4 5 6 6 5 5 5
12 11 11 13 12 12 21 21 20 20 20 20 19 19 18 18 18 16 16 15 13 11 8 8 7 5 5 5 7 8 7 6 6 5 3 3 4 4 5 5 5 5 5 5
12 13 13 14 14 18 19 19 19 18 18 19 18 18 17 17 16 13 13 13 10 9 8 7 6 5 5 6 6 6 5 4 4 4 4 5 5 5 5 4 4 4 4 4
15 15 14 14 15 18 18 18 17 17 17 17 17 16 16 15 13 11 11 11 9 8 7 7 5 3 5 5 4 3 4 4 4 4 4 4 4 4 4 3 3 3 3 3
15 15 14 13 15 17 16 16 17 15 16 16 15 14 15 13 11 10 10 9 9 8 6 5 3 4 3 3 2 3 3 3 3 3 3 3 3 3 3 3 2 2 3 2
15 14 13 13 16 16 16 15 14 14 13 13 13 13 13 12 11 11 10 8 7 6 5 3 4 4 3 3 2 2 2 2 2 2 2 2 2 2 2 1 1 0 1 2
Height
1493 1491 1483 1480 1478 1475 1470 1466 1467 1461 1460 1476 1478 1473 1468 1466 1465 1466 1468 1470 1469 1467 1469 1471 1472 1473 1474 1478 1478 1480 1483 1482 1484 1487 1490 1494 1497 1501 1505 1508 1513 1517 1516 1518
1485 1477 1475 1476 1474 1475 1476 1475 1475 1467 1464 1468 1470 1467 1461 1458 1456 1458 1460 1460 1461 1460 1461 1463 1465 1467 1469 1470 1472 1474 1476 1478 1478 1481 1485 1490 1493 1497 1501 1505 1508 1511 1511 1513
1472 1465 1473 1473 1472 1475 1473 1475 1473 1473 1464 1466 1466 1462 1453 1445 1445 1450 1451 1452 1453 1452 1453 1455 1459 1463 1465 1466 1465 1465 1468 1471 1473 1476 1480 1484 1488 1490 1493 1497 1500 1502 1504 1508
1463 1465 1462 1469 1467 1470 1473 1468 1472 1473 1476 1477 1455 1468 1444 1430 1437 1445 1445 1443 1443 1445 1447 1451 1455 1459 1461 1460 1459 1459 1459 1461 1466 1470 1473 1471 1475 1478 1484 1488 1491 1495 1499 1503
1445 1458 1460 1462 1459 1465 1466 1465 1466 1466 1472 1469 1461 1465 1440 1426 1431 1432 1433 1436 1437 1439 1442 1446 1451 1456 1458 1456 1453 1454 1456 1458 1461 1464 1465 1467 1472 1476 1479 1483 1487 1491 1495 1499
1448 1449 1452 1451 1457 1461 1464 1468 1472 1470 1468 1469 1456 1456 1435 1424 1420 1427 1429 1429 1432 1435 1438 1442 1447 1452 1453 1450 1450 1452 1456 1458 1459 1458 1459 1464 1471 1474 1473 1477 1481 1485 1490 1493
1443 1441 1444 1453 1452 1456 1460 1472 1479 1479 1472 1449 1438 1439 1425 1414 1417 1418 1425 1426 1428 1432 1437 1441 1446 1449 1449 1446 1445 1447 1449 1455 1456 1455 1456 1461 1465 1467 1469 1473 1476 1480 1485 1489
1437 1445 1433 1441 1444 1446 1450 1459 1461 1473 1461 1437 1423 1432 1413 1405 1410 1420 1424 1428 1428 1432 1437 1440 1443 1446 1447 1444 1445 1446 1447 1451 1456 1457 1458 1459 1462 1465 1467 1471 1475 1479 1482 1486
1420 1421 1422 1430 1444 1440 1441 1453 1430 1450 1431 1441 1427 1401 1402 1409 1415 1419 1421 1425 1428 1430 1434 1438 1441 1444 1445 1444 1444 1447 1446 1448 1453 1455 1458 1458 1460 1463 1466 1469 1473 1477 1480 1484
1408 1418 1411 1417 1435 1434 1426 1434 1455 1443 1464 1462 1426 1415 1407 1400 1410 1413 1417 1420 1423 1428 1431 1435 1439 1442 1443 1443 1444 1444 1447 1447 1451 1454 1457 1458 1459 1462 1465 1468 1472 1476 1480 1482
1405 1409 1404 1408 1414 1422 1429 1428 1431 1431 1436 1437 1429 1413 1390 1391 1393 1404 1409 1414 1419 1422 1427 1431 1436 1439 1442 1441 1441 1441 1444 1447 1448 1450 1453 1457 1459 1462 1464 1467 1471 1475 1477 1482
1392 1403 1404 1396 1402 1416 1416 1421 1416 1427 1424 1423 1427 1410 1393 1400 1401 1402 1405 1409 1413 1419 1424 1428 1432 1436 1439 1439 1440 1439 1439 1445 1448 1451 1452 1455 1458 1460 1463 1466 1469 1472 1475 1477
1392 1402 1406 1403 1407 1408 1405 1398 1404 1411 1414 1422 1424 1401 1395 1391 1400 1403 1406 1410 1415 1419 1421 1424 1427 1431 1435 1438 1438 1437 1437 1440 1446 1450 1450 1453 1456 1459 1462 1464 1467 1470 1473 1476
1386 1385 1388 1387 1381 1390 1407 1399 1398 1402 1419 1418 1408 1390 1392 1397 1401 1404 1409 1409 1413 1417 1419 1421 1424 1428 1431 1434 1437 1437 1438 1439 1443 1448 1450 1452 1454 1456 1458 1462 1465 1468 1472 1475
1378 1383 1385 1383 1377 1384 1392 1396 1393 1393 1395 1406 1394 1388 1385 1384 1391 1398 1402 1406 1408 1411 1415 1416 1419 1422 1426 1431 1435 1438 1437 1438 1440 1443 1446 1448 1451 1454 1457 1460 1462 1464 1467 1472
1371 1380 1381 1381 1383 1370 1370 1375 1386 1386 1385 1380 1380 1384 1370 1381 1381 1385 1389 1393 1399 1404 1409 1412 1412 1415 1420 1425 1431 1432 1431 1434 1437 1440 1442 1445 1448 1451 1454 1457 1459 1461 1463 1466
1363 1371 1381 1385 1373 1378 1383 1362 1360 1369 1374 1376 1382 1365 1369 1373 1376 1380 1386 1390 1395 1398 1401 1406 1407 1408 1414 1417 1422 1427 1429 1431 1434 1435 1438 1442 1447 1450 1453 1455 1458 1460 1461 1462
1354 1360 1369 1380 1375 1389 1365 1359 1353 1357 1360 1361 1364 1363 1366 1368 1372 1376 1379 1381 1383 1389 1393 1398 1405 1403 1409 1415 1420 1424 1426 1428 1430 1432 1434 1438 1443 1446 1449 1452 1453 1454 1455 1457
1339 1348 1370 1374 1362 1352 1352 1351 1351 1347 1345 1351 1355 1356 1358 1363 1368 1366 1370 1374 1377 1378 1383 1390 1398 1403 1407 1412 1416 1420 1423 1425 1429 1431 1432 1434 1438 1441 1444 1446 1447 1448 1451 1452
1323 1335 1351 1367 1361 1361 1333 1334 1339 1349 1354 1345 1350 1350 1355 1361 1367 1356 1369 1367 1367 1371 1376 1381 1392 1399 1403 1408 1413 1416 1418 1422 1425 1431 1434 1435 1437 1438 1437 1442 1444 1445 1447 1448
1316 1329 1339 1344 1349 1332 1320 1322 1326 1344 1348 1341 1344 1348 1355 1358 1356 1354 1360 1361 1364 1368 1374 1381 1387 1395 1399 1404 1407 1410 1415 1419 1423 1424 1429 1432 1436 1436 1437 1438 1439 1440 1442 1441
1315 1328 1333 1336 1344 1345 1312 1316 1321 1326 1331 1334 1340 1346 1349 1351 1352 1352 1355 1358 1362 1366 1372 1379 1386 1393 1399 1401 1404 1407 1411 1416 1418 1420 1424 1429 1431 1433 1433 1433 1433 1434 1434 1433
1311 1307 1312 1314 1315 1309 1315 1318 1320 1326 1330 1333 1336 1341 1344 1346 1350 1353 1354 1358 1362 1366 1372 1379 1384 1390 1395 1398 1402 1405 1408 1412 1414 1417 1421 1424 1425 1427 1427 1427 1427 1427 1428 1427
1292 1301 1307 1317 1313 1305 1312 1318 1320 1323 1329 1331 1333 1338 1342 1343 1345 1349 1352 1356 1361 1366 1372 1378 1383 1385 1389 1394 1399 1403 1406 1411 1414 1416 1418 1419 1420 1421 1421 1421 1422 1422 1423 1422
1283 1292 1301 1308 1309 1305 1309 1314 1317 1323 1324 1327 1332 1336 1337 1341 1344 1348 1351 1355 1360 1366 1372 1378 1381 1383 1388 1394 1399 1403 1406 1409 1411 1413 1414 1416 1416 1417 1417 1416 1416 1414 1414 1414
1282 1289 1296 1296 1298 1301 1305 1312 1316 1320 1322 1328 1331 1334 1336 1338 1341 1345 1350 1354 1359 1365 1370 1374 1377 1383 1388 1393 1397 1401 1403 1406 1408 1408 1409 1411 1411 1411 1411 1411 1410 1409 1407 1405
Wind_Speed
21 15 20 23 21 20 19 12 17 14 7 6 14 19 19 21 23 24 23 25 27 28 26 24 23 22 19 21 19 20 23 29 30 31 32 29 29 28 23 22 23 25 29 25
20 24 23 20 20 19 21 21 20 15 18 13 16 21 22 21 19 24 26 27 28 28 26 23 22 21 20 19 18 19 22 26 30 29 31 30 27 26 22 22 23 25 30 27
26 15 24 23 21 20 21 22 19 18 13 13 18 25 26 26 33 26 32 33 32 30 25 21 19 19 18 18 19 19 23 26 29 29 28 29 29 29 30 28 29 32 30 23
29 29 15 26 26 21 22 19 18 19 16 15 8 16 18 10 12 15 22 24 22 20 19 17 15 16 15 14 15 16 18 24 29 29 29 38 42 40 38 35 35 31 26 24
34 27 28 26 25 22 22 17 18 16 17 19 22 13 19 18 12 13 15 19 19 17 16 16 14 11 10 10 12 9 12 18 24 27 32 36 27 25 25 33 32 30 26 24
30 31 22 33 24 21 17 15 13 15 14 18 20 18 20 17 16 15 14 16 14 14 12 12 9 9 8 9 11 9 11 17 21 30 34 29 21 18 26 24 26 28 28 26
28 33 22 19 25 25 22 14 10 12 13 20 14 16 20 3 3 8 13 12 10 10 11 12 11 8 10 10 12 10 15 19 24 28 26 26 26 28 21 22 26 27 27 27
24 23 35 20 27 24 28 23 13 20 15 20 21 24 19 13 11 17 15 11 12 8 8 10 11 11 10 11 14 15 15 15 16 17 18 21 21 20 20 21 21 21 22 23
25 31 28 30 21 25 24 25 31 22 22 13 14 17 13 10 10 13 17 19 17 13 10 11 11 12 11 11 15 18 21 22 22 23 22 21 22 22 20 19 19 20 19 17
29 22 31 30 23 32 28 22 19 15 16 22 19 23 17 10 16 17 15 20 19 16 16 12 12 12 11 12 16 20 19 22 22 22 23 22 22 20 18 18 17 18 17 15
30 22 21 25 27 28 20 22 22 19 18 15 18 16 16 13 9 15 14 18 19 17 13 12 13 14 13 15 18 20 21 23 25 25 24 22 21 20 19 19 16 14 12 9
35 19 18 32 27 26 27 28 27 14 30 17 19 21 7 2 4 8 13 16 13 11 11 12 14 15 15 14 20 23 23 23 23 23 21 19 18 17 15 15 14 12 11 10
28 19 15 20 19 25 31 32 29 25 18 21 16 19 10 23 11 11 12 13 11 11 11 11 15 18 17 17 17 23 24 23 19 17 19 19 18 17 17 16 14 12 9 6
29 20 27 24 29 24 26 29 29 26 19 22 22 30 22 9 12 14 14 12 12 11 10 12 17 19 18 19 18 19 20 20 19 18 18 19 18 17 16 14 11 8 7 7
24 28 24 28 29 30 26 29 30 29 29 25 31 32 27 23 19 19 22 20 20 19 16 18 19 21 22 21 20 19 20 21 20 19 18 18 17 16 15 12 10 8 6 5
24 25 27 26 32 32 33 35 33 33 33 35 33 31 31 27 33 24 28 19 15 20 21 21 22 24 25 26 23 26 24 21 19 17 17 17 16 15 13 9 6 3 2 4
28 22 20 27 30 32 28 27 31 31 32 29 29 32 26 26 23 22 16 18 22 23 24 26 27 24 27 34 31 25 23 21 21 20 18 16 13 11 8 6 3 5 13 18
26 28 19 12 22 25 19 30 29 26 28 30 30 30 27 27 30 28 28 28 25 25 27 25 24 26 29 26 24 23 22 22 21 20 19 16 14 11 8 7 14 18 16 14
28 25 9 9 15 10 21 25 31 30 31 26 27 27 28 34 26 28 33 33 34 27 27 23 24 27 27 26 26 24 22 20 19 18 20 17 12 9 12 12 12 11 16 18
29 26 14 9 16 15 15 27 33 26 23 27 27 25 24 23 13 17 27 33 30 19 19 27 27 28 28 27 25 24 24 23 17 14 9 8 8 8 8 11 14 17 18 21
22 22 24 17 10 14 18 23 25 23 11 19 22 22 22 18 22 34 24 14 12 16 20 25 30 31 29 28 27 28 22 18 13 10 8 5 6 9 13 15 16 19 21 22
16 15 13 20 17 19 20 24 26 13 21 10 13 12 13 16 18 9 7 11 17 24 26 29 29 28 27 28 27 21 17 16 13 11 6 8 11 15 16 17 18 20 22 25
14 13 13 15 16 11 26 28 22 20 19 17 16 15 18 19 11 8 11 17 22 24 26 29 29 30 28 26 20 19 17 12 8 9 13 14 14 15 17 19 20 22 22 24
18 22 14 13 17 22 28 24 14 16 19 22 21 17 17 12 14 13 16 20 22 27 29 30 28 27 24 22 18 14 14 13 13 10 10 11 13 14 16 18 20 21 22 22
10 17 15 19 19 20 15 19 21 13 14 13 13 15 13 11 13 16 19 22 25 28 29 26 22 22 22 20 19 16 12 11 9 9 9 11 13 15 17 19 20 22 23 24
11 13 11 13 18 15 19 12 15 16 14 14 13 11 12 13 14 17 18 22 26 29 28 26 27 24 21 17 14 12 10 8 7 9 11 12 15 17 19 21 22 23 27 29
Wind_Direction
203 217 220 224 220 242 260 274 278 233 193 200 261 269 266 265 256 252 249 251 249 250 249 247 254 249 241 245 242 233 221 221 210 209 206 209 204 206 208 208 205 207 231 229
223 224 228 230 240 232 249 259 249 258 269 235 264 268 266 261 255 253 255 250 249 251 252 249 241 235 241 244 246 239 232 219 213 212 210 210 207 207 206 205 206 203 221 230
220 220 221 240 231 235 236 245 244 255 258 225 269 271 263 252 244 251 251 253 253 252 251 244 228 229 239 247 249 245 234 227 217 208 205 205 196 199 195 200 203 208 216 223
228 232 231 214 230 223 239 230 251 263 269 262 249 279 280 268 208 220 248 248 248 243 238 238 228 225 237 243 248 252 236 220 210 204 202 211 209 206 207 210 213 216 216 221
225 225 225 227 226 224 245 249 255 257 262 268 255 257 270 258 257 251 239 237 235 232 226 222 221 231 234 244 250 248 226 201 200 200 209 209 205 213 219 220 221 221 221 219
235 223 224 230 224 232 231 233 250 246 255 255 246 248 263 253 233 227 242 228 228 228 220 213 196 209 209 239 243 205 195 200 195 197 213 204 196 197 209 208 210 213 210 212
221 228 208 229 233 213 225 204 217 229 227 249 244 233 235 200 258 238 219 224 220 218 204 204 204 219 211 227 223 203 189 198 201 204 199 188 196 205 204 200 202 202 205 205
214 217 221 197 231 212 211 205 220 222 236 254 230 243 250 267 236 202 234 251 247 184 199 214 225 220 210 208 205 189 183 181 186 185 186 184 187 190 191 194 196 198 198 201
210 226 202 207 211 229 196 216 226 255 274 279 265 250 241 213 203 209 224 225 225 237 220 232 226 215 201 195 196 191 186 178 183 183 180 177 179 187 185 184 186 189 191 193
229 223 221 193 203 228 221 211 222 230 247 244 244 243 255 234 205 211 222 230 230 229 231 228 223 210 203 197 195 197 193 186 183 184 185 181 179 179 183 182 183 184 189 196
217 226 215 202 200 207 212 225 215 224 230 240 257 255 254 275 227 187 217 217 220 217 218 220 217 208 205 209 201 194 187 183 178 179 178 177 178 181 181 184 186 186 181 179
211 219 228 209 211 212 215 216 213 215 224 231 255 258 273 14 283 215 209 203 201 204 205 211 210 203 202 202 196 192 183 183 183 183 176 176 173 167 162 158 159 160 171 175
200 215 210 206 206 203 223 213 220 220 231 232 236 255 249 245 211 195 195 188 200 203 207 215 209 202 203 202 199 193 189 181 172 166 165 159 154 154 158 163 166 170 169 175
198 211 214 209 203 199 211 222 214 215 218 230 239 256 234 195 205 207 219 219 210 204 242 237 217 210 204 200 198 185 175 169 164 163 158 159 160 161 162 164 165 172 193 222
202 217 212 231 218 207 209 220 222 221 221 220 233 239 242 242 204 205 205 227 228 242 233 223 216 211 205 198 194 185 178 172 166 163 164 170 171 174 176 182 189 198 217 269
203 214 223 221 234 229 220 212 220 229 224 233 236 242 250 251 258 233 225 237 241 244 236 229 212 202 195 190 188 191 179 171 167 162 161 170 175 178 180 185 196 201 238 287
203 207 209 230 225 232 248 232 223 218 229 232 235 240 245 250 254 252 233 235 235 243 243 233 212 196 200 204 188 184 175 169 166 161 163 168 170 174 175 176 181 303 302 295
203 201 212 221 228 231 234 234 225 237 222 228 236 244 245 250 253 256 259 263 249 252 240 234 212 200 195 191 187 179 171 166 169 166 164 168 173 178 187 257 288 293 296 292
199 199 195 208 208 212 213 217 223 219 228 231 234 239 244 250 260 265 261 265 267 245 239 214 203 197 185 181 174 169 165 165 163 165 175 175 182 233 271 287 291 279 274 275
197 204 199 187 222 214 205 214 219 228 237 233 238 247 253 256 258 257 261 264 257 245 216 193 186 181 178 173 170 163 162 166 168 168 197 235 257 263 268 261 269 272 276 280
190 196 205 209 214 228 210 220 208 201 213 216 230 242 248 248 250 264 265 265 229 202 176 173 173 173 173 169 165 169 170 174 193 205 223 237 267 276 271 268 273 281 284 286
186 191 206 220 220 232 218 229 228 214 216 223 229 250 267 266 269 275 220 188 171 165 165 168 168 170 169 169 169 175 193 207 213 213 211 239 255 266 275 278 280 281 286 289
197 200 198 208 219 234 230 253 238 229 250 246 248 255 256 257 249 215 194 183 176 175 174 173 172 165 173 175 189 190 194 200 202 208 224 240 255 265 271 276 280 282 283 284
193 194 218 214 233 230 239 239 240 236 228 242 245 255 252 233 201 197 186 181 177 175 175 173 173 170 175 181 172 163 177 192 202 219 241 258 269 276 278 280 281 282 284 287
185 194 205 218 232 210 236 257 242 232 231 234 228 234 231 200 193 188 184 180 178 175 174 176 172 172 159 156 160 174 178 194 215 236 260 272 279 284 285 285 284 282 284 284
210 204 214 228 235 240 234 221 229 217 208 215 217 212 201 187 180 182 180 179 176 175 175 170 166 161 161 164 181 177 186 210 223 248 260 270 277 282 285 287 288 287 289 291